�������l�o���
Date,Time,MP-1(��Sv/h),MP-2(��Sv/h),MP-3(��Sv/h),MP-4(��Sv/h),MP-5(��Sv/h),MP-6(��Sv/h),MP-7(��Sv/h),MP-8(��Sv/h),����,����(m/s),���J
2021/11/16,00:00,0.586,0.882,0.561,1.082,0.758,0.357,0.623,0.582,�k��,5.7,��
2021/11/16,00:10,0.587,0.880,0.558,1.083,0.759,0.357,0.620,0.583,�k��,5.1,��
2021/11/16,00:20,0.586,0.881,0.560,1.083,0.758,0.358,0.621,0.583,�k��,4.8,��
2021/11/16,00:30,0.587,0.882,0.559,1.081,0.759,0.356,0.622,0.583,�k��,5.8,��
2021/11/16,00:40,0.585,0.884,0.559,1.081,0.757,0.356,0.618,0.583,�k��,4.3,��
2021/11/16,00:50,0.588,0.882,0.561,1.082,0.757,0.357,0.620,0.583,�k�k��,5.1,��
2021/11/16,01:00,0.588,0.882,0.560,1.081,0.757,0.356,0.619,0.583,�k�k��,4.9,��
2021/11/16,01:10,0.587,0.881,0.559,1.080,0.756,0.357,0.620,0.582,�k�k��,5.3,��
2021/11/16,01:20,0.587,0.883,0.560,1.081,0.759,0.357,0.620,0.583,�k�k��,4.7,��
2021/11/16,01:30,0.587,0.883,0.559,1.084,0.756,0.357,0.621,0.583,�k�k��,4.4,��
2021/11/16,01:40,0.587,0.882,0.558,1.083,0.757,0.357,0.621,0.582,�k,3.9,��
2021/11/16,01:50,0.588,0.882,0.560,1.080,0.758,0.358,0.621,0.583,�k,3.3,��
2021/11/16,02:00,0.588,0.882,0.559,1.081,0.759,0.357,0.620,0.583,�k�k��,4.1,��
2021/11/16,02:10,0.587,0.882,0.560,1.081,0.757,0.356,0.620,0.582,�k�k��,3.2,��
2021/11/16,02:20,0.587,0.883,0.559,1.083,0.759,0.358,0.619,0.582,�k�k��,3.9,��
2021/11/16,02:30,0.588,0.881,0.558,1.082,0.758,0.357,0.620,0.584,�k�k��,3.2,��
2021/11/16,02:40,0.585,0.883,0.559,1.082,0.759,0.356,0.620,0.586,�k�k��,3.4,��
2021/11/16,02:50,0.586,0.883,0.560,1.082,0.758,0.357,0.620,0.582,�k�k��,2.9,��
2021/11/16,03:00,0.587,0.883,0.559,1.082,0.758,0.358,0.620,0.582,�k��,2.8,��
2021/11/16,03:10,0.588,0.882,0.561,1.081,0.757,0.357,0.619,0.583,�k��,2.6,��
2021/11/16,03:20,0.587,0.881,0.559,1.081,0.758,0.357,0.621,0.582,�k��,2.3,��
2021/11/16,03:30,0.586,0.880,0.559,1.083,0.759,0.355,0.620,0.582,�k��,3.0,��
2021/11/16,03:40,0.588,0.883,0.560,1.084,0.758,0.357,0.619,0.583,�k��,3.8,��
2021/11/16,03:50,0.587,0.883,0.560,1.082,0.759,0.357,0.619,0.583,�k��,4.6,��
2021/11/16,04:00,0.586,0.882,0.560,1.082,0.757,0.356,0.620,0.583,�k��,4.9,��
2021/11/16,04:10,0.586,0.881,0.561,1.082,0.756,0.356,0.619,0.583,�k��,4.7,��
2021/11/16,04:20,0.586,0.881,0.559,1.081,0.756,0.356,0.619,0.582,�k��,4.6,��
2021/11/16,04:30,0.586,0.882,0.559,1.080,0.756,0.357,0.619,0.583,�k��,4.2,��
2021/11/16,04:40,0.587,0.882,0.559,1.084,0.760,0.357,0.619,0.583,�k��,3.5,��
2021/11/16,04:50,0.587,0.882,0.558,1.082,0.758,0.357,0.620,0.583,�k��,4.0,��
2021/11/16,05:00,0.587,0.883,0.559,1.084,0.758,0.356,0.620,0.582,�k��,4.3,��
2021/11/16,05:10,0.588,0.881,0.559,1.082,0.757,0.357,0.620,0.582,�k��,4.1,��
2021/11/16,05:20,0.587,0.883,0.558,1.080,0.756,0.357,0.620,0.583,�k��,4.2,��
2021/11/16,05:30,0.586,0.880,0.558,1.081,0.758,0.357,0.618,0.581,�k��,4.4,��
2021/11/16,05:40,0.586,0.882,0.559,1.082,0.757,0.356,0.619,0.583,�k��,4.3,��
2021/11/16,05:50,0.586,0.883,0.560,1.082,0.758,0.357,0.618,0.581,�k��,4.5,��
2021/11/16,06:00,0.587,0.883,0.560,1.081,0.757,0.356,0.620,0.583,�k��,4.4,��
2021/11/16,06:10,0.586,0.882,0.559,1.082,0.756,0.356,0.619,0.582,�k��,4.2,��
2021/11/16,06:20,0.586,0.883,0.559,1.080,0.757,0.357,0.619,0.582,�k��,4.1,��
2021/11/16,06:30,0.587,0.881,0.559,1.082,0.756,0.356,0.619,0.582,�k��,4.5,��
2021/11/16,06:40,0.586,0.882,0.558,1.080,0.758,0.355,0.618,0.581,�k��,3.9,��
2021/11/16,06:50,0.586,0.880,0.559,1.083,0.758,0.357,0.620,0.582,�k��,4.8,��
2021/11/16,07:00,0.586,0.881,0.561,1.083,0.757,0.356,0.619,0.582,�k��,4.4,��
2021/11/16,07:10,0.587,0.880,0.558,1.080,0.757,0.356,0.619,0.584,�k��,3.4,��
2021/11/16,07:20,0.587,0.881,0.559,1.083,0.756,0.357,0.621,0.581,�k��,3.8,��
2021/11/16,07:30,0.586,0.882,0.558,1.080,0.759,0.356,0.619,0.583,�k��,4.2,��
2021/11/16,07:40,0.587,0.881,0.559,1.081,0.756,0.357,0.620,0.582,�k��,4.7,��
2021/11/16,07:50,0.586,0.883,0.559,1.082,0.758,0.356,0.621,0.582,�k��,3.1,��
2021/11/16,08:00,0.587,0.880,0.559,1.084,0.756,0.356,0.621,0.581,�k��,2.5,��
2021/11/16,08:10,0.588,0.881,0.558,1.082,0.757,0.356,0.622,0.584,�k��,3.2,��
2021/11/16,08:20,0.586,0.882,0.558,1.082,0.757,0.358,0.620,0.582,�k��,2.5,��
2021/11/16,08:30,0.587,0.882,0.561,1.081,0.757,0.355,0.619,0.582,�k�k��,2.6,��
2021/11/16,08:40,0.587,0.882,0.558,1.083,0.756,0.356,0.619,0.582,�k�k��,2.6,��
2021/11/16,08:50,0.587,0.882,0.558,1.082,0.756,0.358,0.619,0.582,�k�k��,3.2,��
2021/11/16,09:00,0.587,0.879,0.558,1.082,0.757,0.357,0.620,0.583,�k,2.5,��
2021/11/16,09:10,0.588,0.877,0.558,1.081,0.758,0.358,0.620,0.583,�k�k��,1.9,��
2021/11/16,09:20,0.589,0.874,0.559,1.085,0.757,0.357,0.618,0.584,�k�k��,2.6,��
2021/11/16,09:30,0.588,0.878,0.559,1.083,0.758,0.356,0.619,0.582,�k�k��,2.0,��
2021/11/16,09:40,0.588,0.877,0.561,1.084,0.758,0.358,0.616,0.583,�k�k��,2.0,��
2021/11/16,09:50,0.588,0.879,0.559,1.083,0.757,0.356,0.619,0.583,�k,1.5,��
2021/11/16,10:00,0.589,0.880,0.561,1.083,0.758,0.356,0.618,0.584,�k��,1.2,��
2021/11/16,10:10,0.589,0.879,0.560,1.082,0.757,0.357,0.617,0.583,�k,1.2,��
2021/11/16,10:20,0.590,0.879,0.560,1.084,0.760,0.356,0.618,0.583,�k�k��,1.1,��
2021/11/16,10:30,0.586,0.882,0.560,1.086,0.759,0.357,0.616,0.583,�k�k��,0.9,��
2021/11/16,10:40,0.588,0.880,0.561,1.083,0.758,0.356,0.618,0.582,-,CALM,��
2021/11/16,10:50,0.587,0.879,0.560,1.084,0.759,0.356,0.618,0.583,���k��,1.1,��
2021/11/16,11:00,0.588,0.880,0.560,1.085,0.757,0.357,0.618,0.582,-,CALM,��
2021/11/16,11:10,0.587,0.881,0.560,1.082,0.756,0.357,0.619,0.581,�쓌,0.9,��
2021/11/16,11:20,0.587,0.881,0.561,1.085,0.756,0.357,0.618,0.582,��,0.6,��
2021/11/16,11:30,0.586,0.882,0.560,1.083,0.756,0.357,0.619,0.583,�쓌,1.2,��
2021/11/16,11:40,0.587,0.882,0.559,1.085,0.757,0.357,0.619,0.581,���쓌,1.4,��
2021/11/16,11:50,0.589,0.879,0.560,1.084,0.758,0.356,0.618,0.583,���쓌,1.4,��
2021/11/16,12:00,0.587,0.881,0.562,1.082,0.759,0.357,0.619,0.581,��,1.5,��
2021/11/16,12:10,0.588,0.882,0.560,1.083,0.755,0.358,0.617,0.584,�쓌,2.6,��
2021/11/16,12:20,0.587,0.881,0.561,1.086,0.761,0.358,0.619,0.582,���쓌,2.6,��
2021/11/16,12:30,0.587,0.880,0.558,1.082,0.757,0.357,0.619,0.580,���k��,2.2,��
2021/11/16,12:40,0.587,0.882,0.557,1.086,0.756,0.356,0.619,0.581,���k��,2.0,��
2021/11/16,12:50,0.586,0.879,0.560,1.084,0.758,0.357,0.618,0.582,���k��,2.2,��
2021/11/16,13:00,0.587,0.879,0.560,1.084,0.755,0.356,0.618,0.580,�k��,2.0,��
2021/11/16,13:10,0.589,0.880,0.560,1.085,0.756,0.356,0.620,0.582,�k��,2.8,��
2021/11/16,13:20,0.587,0.879,0.560,1.085,0.759,0.355,0.618,0.581,�k��,2.8,��
2021/11/16,13:30,0.586,0.881,0.561,1.085,0.758,0.357,0.617,0.581,�k�k��,2.3,��
2021/11/16,13:40,0.585,0.881,0.562,1.085,0.757,0.356,0.619,0.582,�k�k��,2.6,��
2021/11/16,13:50,0.588,0.881,0.562,1.086,0.758,0.358,0.619,0.580,�k�k��,3.1,��
2021/11/16,14:00,0.588,0.879,0.559,1.084,0.758,0.357,0.619,0.580,�k�k��,2.3,��
2021/11/16,14:10,0.586,0.880,0.560,1.085,0.757,0.358,0.619,0.582,�k��,2.0,��
2021/11/16,14:20,0.588,0.883,0.561,1.085,0.759,0.357,0.617,0.580,�k�k��,2.0,��
2021/11/16,14:30,0.587,0.879,0.561,1.086,0.757,0.358,0.618,0.583,�k��,2.0,��
2021/11/16,14:40,0.588,0.881,0.560,1.085,0.757,0.357,0.620,0.581,�k�k��,2.2,��
2021/11/16,14:50,0.587,0.883,0.561,1.084,0.756,0.358,0.619,0.583,�k��,2.3,��
2021/11/16,15:00,0.588,0.885,0.558,1.085,0.758,0.357,0.620,0.583,�k�k��,2.3,��
2021/11/16,15:10,0.587,0.885,0.559,1.083,0.758,0.358,0.621,0.585,�k,2.6,��
2021/11/16,15:20,0.586,0.885,0.558,1.087,0.757,0.358,0.619,0.585,�k,1.9,��
2021/11/16,15:30,0.586,0.880,0.559,1.083,0.757,0.357,0.619,0.583,�k,1.5,��
2021/11/16,15:40,0.586,0.885,0.558,1.085,0.757,0.357,0.618,0.586,�k�k��,2.6,��
2021/11/16,15:50,0.586,0.882,0.560,1.082,0.756,0.357,0.621,0.583,�k��,2.6,��
2021/11/16,16:00,0.586,0.884,0.561,1.084,0.757,0.358,0.620,0.583,���k��,3.0,��
2021/11/16,16:10,0.586,0.884,0.560,1.085,0.756,0.357,0.622,0.582,�k��,3.4,��
2021/11/16,16:20,0.586,0.884,0.560,1.084,0.757,0.358,0.621,0.583,�k��,3.3,��
2021/11/16,16:30,0.584,0.883,0.560,1.084,0.758,0.357,0.621,0.585,���k��,3.1,��
2021/11/16,16:40,0.586,0.883,0.561,1.084,0.757,0.358,0.621,0.585,���k��,4.4,��
2021/11/16,16:50,0.587,0.884,0.560,1.086,0.760,0.360,0.620,0.583,�k��,5.7,��
2021/11/16,17:00,0.587,0.883,0.561,1.082,0.759,0.359,0.620,0.584,�k��,5.9,��
2021/11/16,17:10,0.588,0.883,0.560,1.084,0.758,0.358,0.621,0.583,�k��,4.2,��
2021/11/16,17:20,0.587,0.884,0.559,1.085,0.758,0.357,0.620,0.582,�k��,4.3,��
2021/11/16,17:30,0.587,0.883,0.559,1.087,0.759,0.356,0.621,0.582,���k��,5.0,��
2021/11/16,17:40,0.588,0.883,0.562,1.082,0.757,0.357,0.620,0.581,���k��,5.6,��
2021/11/16,17:50,0.588,0.881,0.559,1.083,0.758,0.357,0.620,0.581,���k��,6.0,��
2021/11/16,18:00,0.588,0.883,0.560,1.084,0.758,0.358,0.620,0.583,�k��,4.6,��
2021/11/16,18:10,0.586,0.882,0.560,1.085,0.760,0.358,0.619,0.582,�k��,4.5,��
2021/11/16,18:20,0.588,0.884,0.560,1.084,0.758,0.357,0.621,0.582,�k��,4.8,��
2021/11/16,18:30,0.586,0.882,0.560,1.084,0.759,0.355,0.620,0.583,�k��,4.6,��
2021/11/16,18:40,0.586,0.884,0.560,1.082,0.757,0.356,0.620,0.582,�k��,6.1,��
2021/11/16,18:50,0.587,0.883,0.561,1.086,0.756,0.357,0.620,0.581,���k��,7.4,��
2021/11/16,19:00,0.587,0.883,0.560,1.086,0.758,0.356,0.619,0.581,���k��,7.2,��
2021/11/16,19:10,0.587,0.883,0.560,1.084,0.758,0.357,0.619,0.582,�k��,5.5,��
2021/11/16,19:20,0.587,0.881,0.560,1.085,0.757,0.356,0.619,0.584,�k��,5.6,��
2021/11/16,19:30,0.588,0.883,0.561,1.084,0.758,0.357,0.619,0.582,�k��,5.4,��
2021/11/16,19:40,0.587,0.883,0.560,1.084,0.758,0.358,0.620,0.582,�k��,4.9,��
2021/11/16,19:50,0.587,0.885,0.559,1.084,0.760,0.357,0.619,0.582,�k��,5.2,��
2021/11/16,20:00,0.589,0.885,0.559,1.085,0.759,0.356,0.622,0.583,�k��,5.3,��
2021/11/16,20:10,0.588,0.883,0.560,1.085,0.757,0.355,0.622,0.583,�k��,4.8,��
2021/11/16,20:20,0.587,0.882,0.561,1.085,0.758,0.358,0.620,0.582,�k��,5.1,��
2021/11/16,20:30,0.587,0.881,0.560,1.085,0.759,0.356,0.621,0.583,�k��,5.7,��
2021/11/16,20:40,0.587,0.882,0.560,1.085,0.758,0.356,0.620,0.583,���k��,5.5,��
2021/11/16,20:50,0.586,0.881,0.559,1.085,0.759,0.356,0.620,0.583,�k��,6.0,��
2021/11/16,21:00,0.587,0.883,0.559,1.083,0.757,0.356,0.621,0.582,���k��,6.5,��
2021/11/16,21:10,0.588,0.881,0.559,1.083,0.759,0.357,0.621,0.583,���k��,7.1,��
2021/11/16,21:20,0.587,0.881,0.559,1.085,0.760,0.358,0.621,0.582,���k��,7.1,��
2021/11/16,21:30,0.587,0.884,0.558,1.087,0.759,0.357,0.620,0.581,���k��,6.9,��
2021/11/16,21:40,0.587,0.883,0.561,1.084,0.758,0.356,0.620,0.583,���k��,6.0,��
2021/11/16,21:50,0.589,0.885,0.558,1.085,0.760,0.354,0.621,0.583,���k��,4.9,��
2021/11/16,22:00,0.587,0.883,0.558,1.087,0.761,0.357,0.620,0.583,���k��,4.7,��
2021/11/16,22:10,0.586,0.884,0.561,1.086,0.758,0.356,0.621,0.583,���k��,3.5,��
2021/11/16,22:20,0.587,0.884,0.559,1.086,0.759,0.357,0.622,0.584,�k��,4.4,��
2021/11/16,22:30,0.588,0.884,0.560,1.087,0.759,0.357,0.621,0.585,�k��,4.7,��
2021/11/16,22:40,0.586,0.883,0.559,1.084,0.761,0.357,0.620,0.583,�k��,5.5,��
2021/11/16,22:50,0.586,0.883,0.561,1.086,0.759,0.356,0.620,0.581,�k��,5.6,��
2021/11/16,23:00,0.587,0.881,0.560,1.086,0.758,0.355,0.621,0.583,�k��,6.7,��
2021/11/16,23:10,0.588,0.883,0.560,1.086,0.760,0.356,0.621,0.582,�k��,7.5,��
2021/11/16,23:20,0.585,0.883,0.560,1.085,0.759,0.356,0.622,0.582,�k��,9.4,��
2021/11/16,23:30,0.587,0.885,0.558,1.085,0.760,0.356,0.620,0.581,�k��,8.1,��
2021/11/16,23:40,0.586,0.883,0.559,1.086,0.758,0.356,0.621,0.583,���k��,7.3,��
2021/11/16,23:50,0.586,0.882,0.560,1.085,0.758,0.355,0.622,0.583,���k��,8.1,��
